Theta_e
317 317 317 317 318 317 316 316 315 312 311 309 307 304 303 303 302 302 302 301 301 302 301 301 301 302 301 302 302 301 302 302 302 302 303 303 306 307 308 312 315 316 317 319 320 321 321 321 321 321 321 321 320 320 320 321 321 321 321 321 320 320 320 320 320 320 319 319 320 320 321 322 322 323 324 324 324 325 326 328 328 329 330 330 331
316 315 315 315 315 315 315 314 312 310 308 307 304 303 302 302 302 302 302 302 301 301 300 301 300 301 301 301 301 301 301 301 302 302 303 303 305 307 305 309 313 314 316 318 319 320 320 321 321 321 321 321 320 320 321 321 320 319 319 319 319 319 319 319 319 318 318 318 318 319 320 320 320 321 322 323 323 324 325 325 326 327 327 328 329
315 314 313 313 313 312 312 311 310 307 306 305 303 303 303 302 302 300 300 300 300 300 300 300 300 300 300 301 300 300 301 301 301 302 302 302 303 306 308 307 310 313 315 316 317 318 319 320 320 319 320 320 320 320 319 318 318 318 317 318 318 318 318 318 317 317 317 317 317 318 318 319 319 320 321 322 322 323 323 324 324 325 325 325 326
314 313 312 311 310 310 310 309 309 306 305 304 302 303 302 304 304 303 302 302 300 299 300 299 299 299 300 300 300 300 300 301 301 301 301 302 302 304 307 309 307 309 312 314 315 316 317 318 319 319 319 319 319 319 318 317 317 317 316 316 317 317 317 316 316 316 316 316 317 317 318 318 319 319 319 320 321 321 322 322 322 323 324 323 324
312 311 310 310 309 308 308 307 307 305 303 303 303 302 302 300 301 301 300 300 299 299 300 300 299 298 299 299 299 300 300 300 300 300 300 301 301 301 303 307 309 306 306 309 312 314 315 316 317 318 318 317 317 316 316 316 316 316 316 316 316 316 316 315 315 315 316 315 316 316 316 317 317 317 318 319 319 320 320 320 321 321 322 322 322
311 310 309 308 307 307 306 306 305 304 302 302 300 300 299 300 299 298 298 298 298 297 296 298 298 298 299 299 299 299 300 300 299 300 300 300 301 301 301 302 304 307 306 303 304 307 311 312 313 314 314 315 315 315 316 316 315 315 316 316 316 315 315 314 314 315 315 314 315 315 315 316 316 316 316 317 318 318 319 320 320 320 321 321 321
310 308 307 306 305 305 304 304 303 302 301 300 299 300 300 300 298 297 297 297 298 298 298 297 297 297 298 298 298 299 299 299 299 299 299 300 300 301 300 300 301 303 304 302 301 301 305 308 309 310 311 312 312 314 315 315 315 315 315 315 314 314 314 314 314 314 313 313 314 314 314 315 315 316 316 316 316 317 317 317 318 319 319 320 320
308 307 306 305 304 303 302 303 302 301 300 300 300 299 300 300 299 299 296 297 297 296 298 298 298 298 298 298 298 298 298 298 298 298 299 299 299 300 299 299 299 299 300 300 298 298 300 303 305 307 308 309 310 312 313 313 313 313 313 313 313 312 313 312 312 312 312 312 312 313 313 314 314 314 314 314 315 315 316 316 317 317 318 318 318
307 306 305 304 303 302 301 302 301 300 300 300 299 299 300 300 299 299 298 296 296 296 296 297 297 297 297 298 298 298 298 297 298 298 299 299 299 299 299 298 297 298 298 297 297 296 296 298 300 301 303 306 308 310 311 312 312 312 312 312 312 312 312 311 311 311 312 311 311 311 312 313 313 313 313 313 314 314 315 315 315 316 316 317 317
306 305 304 303 303 302 301 301 300 300 300 299 298 300 300 299 297 298 298 297 295 296 295 296 297 296 296 297 297 297 298 297 297 296 297 297 298 298 297 297 297 297 296 297 296 296 295 295 295 296 298 301 305 308 309 309 310 311 312 311 311 311 311 310 310 310 310 311 311 311 311 312 312 312 312 312 313 313 313 313 314 314 314 315 315
305 304 303 302 301 301 300 300 299 299 299 298 299 299 299 298 297 296 297 297 296 296 296 297 297 297 296 295 296 296 297 297 296 297 297 297 297 297 298 297 297 296 296 296 295 295 296 296 295 296 296 297 300 304 307 308 308 309 311 311 311 310 309 309 310 310 310 310 309 310 310 310 310 311 311 311 311 312 312 312 313 313 314 314 314
304 303 302 301 300 300 299 299 299 299 298 298 297 297 298 298 297 296 295 296 298 298 297 295 295 295 294 294 295 295 295 295 296 296 297 297 295 295 295 296 295 295 295 295 295 295 295 295 294 294 294 294 296 299 302 305 306 308 309 309 310 309 309 309 309 308 308 308 308 308 308 308 308 309 309 309 310 310 311 311 311 312 312 313 313
303 303 301 300 300 299 299 298 298 298 298 298 299 298 298 298 297 296 295 293 294 296 297 297 294 293 294 293 293 294 293 294 294 295 295 295 295 295 294 294 295 294 294 295 294 294 294 294 294 294 294 295 294 295 297 300 303 307 308 308 310 311 310 308 308 307 306 306 306 307 307 307 308 308 308 309 309 309 310 310 311 311 311 312 312
302 302 301 301 299 298 298 297 297 297 298 299 299 298 298 297 297 295 296 294 293 295 296 295 293 292 290 290 291 292 292 292 292 293 294 295 295 295 294 294 293 293 293 293 294 293 294 294 294 294 294 294 294 295 297 299 299 302 306 307 307 307 307 306 306 306 305 305 305 306 306 307 307 307 308 307 308 308 309 309 310 310 311 311 312
302 301 300 300 300 298 297 297 297 297 297 298 298 297 297 297 296 294 293 295 294 296 296 297 293 295 295 292 289 289 290 290 292 292 293 294 294 294 294 293 292 293 293 293 293 292 293 293 293 293 293 294 294 294 295 295 294 295 298 299 302 305 306 306 306 305 305 304 304 304 305 305 306 306 307 307 307 307 308 308 309 310 310 311 311
302 301 300 300 300 298 297 296 296 297 297 296 297 297 296 296 295 295 294 292 294 292 296 297 298 296 291 292 292 292 289 289 289 290 292 293 293 293 292 292 292 293 293 292 292 292 292 293 292 293 293 293 294 294 295 295 294 293 293 294 295 299 302 304 304 304 304 304 303 304 304 304 304 305 306 306 306 307 307 308 308 309 309 310 310
302 301 300 300 300 299 297 297 296 297 297 296 296 296 296 296 295 295 294 292 292 292 293 296 296 299 295 292 289 289 292 294 290 290 290 290 292 292 292 292 292 292 292 292 292 292 292 292 292 292 293 293 293 293 293 295 296 295 293 292 293 295 297 301 302 302 303 303 303 304 304 303 304 305 305 305 305 306 306 307 307 307 308 308 309
302 301 300 299 299 299 298 297 296 296 296 296 297 297 296 295 295 295 294 295 294 293 291 294 295 297 296 297 299 294 294 293 291 288 290 291 291 291 292 292 292 292 292 292 292 292 291 291 292 292 292 293 292 293 293 294 295 295 294 292 294 294 295 296 299 301 301 301 302 303 303 303 303 303 303 304 304 304 305 306 306 306 307 307 308
301 301 300 299 299 299 299 297 296 296 296 296 295 296 296 296 296 295 295 295 296 293 292 291 293 292 294 295 296 291 299 293 290 293 287 289 291 290 290 291 291 291 292 292 292 292 291 291 291 291 292 292 292 292 293 293 292 291 290 291 292 293 294 294 294 297 298 299 300 301 302 302 302 302 302 303 303 304 305 305 306 306 306 306 307
300 300 300 299 299 299 298 298 296 296 295 295 295 296 296 297 296 296 296 295 297 294 294 293 290 291 293 292 291 293 295 296 301 295 294 289 288 290 291 291 291 291 291 292 291 291 291 290 291 291 291 291 292 292 293 293 293 293 291 290 291 292 293 293 293 294 294 296 298 299 300 301 301 301 301 302 302 303 304 304 305 305 305 305 306
299 299 299 299 298 298 298 297 296 295 295 295 295 296 296 295 295 294 295 294 295 296 296 294 292 292 292 291 293 292 293 295 294 296 294 293 291 288 288 290 290 290 291 291 291 291 290 290 290 291 291 291 291 292 292 292 292 292 289 289 290 291 291 292 293 293 293 293 295 296 298 299 299 300 300 301 302 303 303 303 304 304 304 305 305
298 299 299 298 298 298 298 297 296 296 294 294 295 296 296 296 295 294 294 295 295 295 296 296 295 295 294 294 291 291 292 291 292 293 293 296 293 291 291 288 286 288 290 290 290 290 290 290 289 290 290 290 291 291 292 292 292 291 288 287 288 289 290 291 292 292 292 293 293 293 295 296 297 298 299 300 301 302 303 303 302 303 304 304 304
297 297 298 298 298 298 297 297 297 296 294 294 294 294 295 295 295 295 294 294 294 294 296 297 296 296 295 294 292 292 291 291 291 292 292 290 290 293 293 291 291 289 289 291 290 290 289 290 289 289 290 290 291 291 291 291 289 287 285 286 287 288 289 290 290 291 291 292 292 292 293 293 294 295 297 299 300 301 301 302 302 302 303 303 303
297 296 297 297 297 297 297 296 296 295 294 294 294 294 294 294 294 294 294 294 295 294 294 295 296 296 296 295 294 295 294 294 295 294 293 293 292 292 291 291 290 291 290 288 290 289 289 289 289 290 290 290 290 291 291 290 289 284 287 285 286 286 288 289 289 290 290 290 291 291 292 292 292 293 295 297 299 299 300 300 301 301 302 302 302
295 295 296 296 296 296 296 295 295 295 295 294 294 294 294 294 294 294 293 293 293 293 292 294 295 293 294 295 295 296 295 297 298 296 295 296 294 292 292 291 288 288 288 288 287 288 289 289 289 289 289 290 290 290 290 290 289 286 285 285 283 285 285 287 288 289 289 289 290 290 290 291 291 292 294 295 297 298 299 299 300 300 300 300 301
296 296 296 296 296 296 296 296 296 296 295 295 294 294 294 293 293 293 293 293 293 293 293 294 295 295 295 294 294 294 295 298 297 297 295 294 292 292 290 288 290 289 287 286 288 286 286 288 289 289 289 290 290 289 289 289 288 284 283 284 285 283 284 286 287 288 288 289 289 289 289 289 290 291 292 294 295 296 297 298 299 299 299 299 300
297 297 297 296 296 296 296 295 295 295 295 295 294 294 294 293 293 293 292 293 293 292 292 293 293 294 294 293 293 294 294 295 295 295 296 294 294 293 291 287 285 287 285 286 286 286 288 286 288 288 288 289 289 289 289 288 287 283 283 286 286 282 283 284 286 287 287 288 288 288 288 289 289 290 291 292 293 294 295 296 297 298 298 298 297
298 297 297 296 295 295 295 295 295 295 295 294 294 293 293 292 291 292 292 293 292 292 292 292 293 293 293 294 293 293 294 294 294 294 295 295 295 295 292 291 287 284 285 285 285 285 289 285 287 288 288 288 289 289 288 287 286 283 282 286 285 285 282 283 285 286 287 287 287 288 288 288 289 290 290 291 291 292 293 293 294 294 294 294 294
298 298 297 296 296 295 295 294 295 295 294 294 293 293 292 291 290 290 290 291 291 291 291 291 292 292 292 293 292 292 292 293 292 293 294 294 295 294 293 291 291 288 285 283 285 285 286 287 284 286 288 288 287 288 286 286 285 284 286 285 285 285 283 283 284 285 286 287 286 286 287 288 288 289 289 290 291 291 292 292 292 292 293 293 293
297 297 296 296 295 294 294 294 294 294 294 293 293 292 292 290 290 290 290 290 290 290 290 290 290 291 291 291 291 291 292 292 291 291 292 292 292 293 292 293 293 290 289 286 286 287 287 286 287 286 286 287 287 287 286 286 284 283 285 285 284 284 282 282 283 284 285 285 285 286 287 287 288 288 289 289 290 291 291 291 291 292 292 292 293
295 295 295 295 294 294 294 293 293 293 293 292 292 292 291 290 289 289 289 289 289 288 289 289 289 289 289 289 291 290 292 291 291 290 291 291 291 291 291 292 292 291 290 289 286 288 289 285 286 287 285 286 286 285 285 286 283 283 284 284 284 282 280 282 282 283 284 284 284 285 286 287 287 288 289 289 290 290 291 290 290 291 291 292 293
294 294 294 294 294 293 293 293 293 292 292 292 291 291 290 290 289 289 289 288 288 288 288 289 289 288 288 288 289 289 290 290 290 290 289 290 290 290 290 290 290 290 290 289 287 286 287 287 286 286 286 285 285 284 284 285 283 281 284 283 283 281 282 283 282 282 283 283 284 285 286 287 287 288 288 288 289 289 289 290 290 290 290 291 292
293 293 293 293 293 293 292 292 292 291 291 291 290 290 289 289 289 289 289 288 287 287 288 288 288 287 287 287 288 288 290 289 289 289 289 289 289 289 289 289 289 288 288 287 285 285 284 286 287 285 285 285 283 284 283 283 283 282 282 283 283 282 283 283 283 282 282 283 284 284 285 286 287 288 288 288 288 288 288 289 289 290 290 291 291
292 292 292 292 292 292 292 292 291 291 291 290 290 289 289 288 288 289 288 287 287 287 287 287 287 287 287 287 287 287 288 287 288 288 288 288 287 287 287 287 287 287 288 286 286 286 283 283 284 285 283 284 282 284 283 283 282 283 282 282 282 282 282 283 283 284 282 283 283 284 285 286 287 287 287 287 287 287 288 289 289 289 290 290 290
291 291 291 291 292 292 291 291 291 290 290 290 289 289 288 288 288 287 288 287 287 286 286 286 287 287 286 286 286 287 287 286 287 287 288 287 287 286 286 286 286 286 286 287 286 285 284 282 283 282 282 282 282 282 283 283 282 282 281 281 282 282 282 283 283 284 283 283 283 284 285 285 286 286 286 286 286 287 287 288 288 288 289 289 289
290 291 291 291 291 290 290 290 290 290 289 289 289 288 288 288 287 287 287 287 286 286 286 286 286 286 285 285 286 286 286 285 285 286 286 286 286 285 285 285 285 286 286 286 286 286 285 281 281 281 282 280 281 282 282 281 280 280 281 281 282 282 282 283 282 283 283 283 283 284 284 285 284 285 285 285 286 286 287 287 287 288 288 288 288
290 290 290 290 290 290 289 289 289 289 289 289 288 288 288 288 287 287 287 286 286 286 286 286 286 286 285 285 285 285 285 284 285 285 285 284 285 284 284 284 284 285 284 284 284 285 284 282 281 281 282 281 281 280 280 279 279 280 281 280 281 281 282 283 283 283 283 283 283 283 283 283 283 284 284 285 285 286 286 286 286 286 286 286 286
288 289 288 289 289 289 289 289 289 289 289 288 288 288 287 287 287 287 287 286 286 286 286 286 286 286 285 285 285 285 284 284 284 284 284 284 284 283 283 284 284 284 283 283 283 283 283 283 281 279 280 279 279 279 280 280 279 279 279 280 281 281 281 281 282 283 283 283 283 283 282 282 283 283 283 284 284 285 285 285 285 285 285 285 285
287 287 287 287 287 288 288 288 288 289 288 288 288 287 287 287 286 286 286 286 286 286 285 285 285 285 285 285 285 285 284 284 285 284 284 283 283 283 284 283 283 282 282 282 282 281 281 282 280 279 278 279 279 277 279 280 280 280 279 280 279 281 281 281 281 282 282 282 282 282 282 282 282 283 283 283 283 284 284 284 284 284 283 283 283
288 288 287 287 287 287 287 287 287 288 288 288 288 288 287 287 286 285 286 286 286 285 285 285 285 285 285 285 285 285 285 285 285 284 283 283 283 282 283 283 282 281 281 282 281 280 280 280 279 278 279 278 278 280 280 279 278 278 280 280 280 280 280 281 281 281 282 282 282 282 282 282 282 282 282 282 281 281 281 282 282 282 282 282 283
287 287 288 287 287 287 286 286 286 287 287 287 288 287 286 286 286 285 285 285 285 285 285 285 285 285 285 285 285 285 285 284 285 285 284 284 283 282 283 283 282 281 281 281 280 280 279 279 278 278 278 277 278 277 277 277 277 278 280 280 279 280 280 280 281 282 281 281 281 282 282 282 281 281 280 280 281 280 280 280 281 281 281 282 283
286 286 286 287 287 287 287 286 286 286 286 287 287 287 288 286 286 286 285 285 285 285 285 284 284 284 285 285 285 284 284 284 284 285 286 285 285 284 283 282 282 281 281 280 279 279 279 278 278 277 277 277 277 277 277 278 280 281 280 279 278 279 279 279 280 280 282 281 280 279 280 281 279 279 279 279 280 280 281 281 281 281 281 282 283
285 286 286 286 286 286 286 287 287 286 286 286 287 289 289 289 287 286 285 285 285 285 285 284 284 284 284 285 285 284 284 283 284 284 286 285 285 285 284 284 283 282 280 279 278 279 278 278 278 278 277 277 278 278 278 279 279 279 278 279 278 278 278 278 277 279 281 280 279 278 278 280 279 277 278 279 279 280 280 280 281 282 282 283 283
285 285 285 285 286 286 286 286 286 286 287 287 288 288 289 289 288 286 285 285 285 285 285 284 284 284 284 284 284 284 284 284 283 283 284 285 285 285 284 283 283 284 284 281 279 278 278 278 278 278 278 277 278 278 278 279 278 279 279 278 278 278 277 276 277 277 280 280 278 277 276 279 279 277 277 278 279 280 280 281 282 282 282 283 283
284 284 285 285 285 285 285 285 285 286 286 287 288 289 289 289 289 288 286 285 285 285 285 285 284 283 283 283 282 282 283 283 283 282 282 283 284 284 284 283 283 283 284 283 283 281 280 279 278 278 278 279 277 278 279 279 280 278 278 277 278 278 278 277 277 278 278 280 277 275 274 277 277 276 276 278 279 280 280 281 281 282 282 282 283
283 284 284 284 284 285 285 285 285 285 285 286 288 288 289 289 289 289 286 285 285 285 285 285 284 284 283 282 282 281 282 282 283 282 282 282 282 282 282 281 280 281 283 283 282 280 280 280 280 278 279 279 278 279 280 281 279 277 277 277 278 277 277 276 278 279 279 279 276 275 273 275 277 276 276 278 279 279 279 280 281 281 282 282 282
282 283 283 283 284 284 284 284 284 284 285 286 287 287 288 288 289 289 287 286 285 285 285 284 284 283 283 283 282 281 281 281 282 282 281 281 281 280 280 279 279 279 280 281 280 280 279 278 279 279 279 279 280 280 280 281 280 279 280 278 278 278 278 278 277 277 277 278 276 274 270 275 277 275 276 277 278 278 279 279 281 281 282 282 282
281 283 283 283 283 283 284 284 284 283 284 286 286 286 287 288 288 287 286 286 285 285 285 285 283 283 283 283 282 281 281 281 282 283 282 281 280 279 278 278 278 279 279 281 282 281 279 279 279 280 280 280 281 281 281 280 279 279 279 277 276 275 274 273 272 274 274 276 276 274 272 272 276 274 275 277 277 276 277 278 280 281 281 281 281
279 280 281 282 282 283 283 283 283 283 283 285 285 286 286 287 287 286 286 285 285 285 285 285 284 283 283 282 282 281 281 281 282 284 284 282 279 278 278 277 277 277 278 279 282 282 281 281 281 281 282 282 282 283 282 282 280 279 276 275 273 274 273 271 271 272 272 275 275 274 272 271 274 274 274 275 276 275 276 277 278 279 280 280 280
277 279 280 281 281 282 282 281 282 282 283 284 285 285 286 286 286 285 285 285 285 285 285 285 284 283 283 282 282 281 280 280 282 284 284 282 279 278 278 277 276 276 277 279 279 280 281 281 281 281 282 282 282 282 282 282 281 279 275 273 274 273 271 272 270 272 273 274 273 275 271 271 274 274 273 274 274 274 275 276 277 278 278 279 280
276 278 279 280 280 281 282 281 282 282 282 283 284 285 285 285 285 285 285 284 284 284 285 284 284 283 282 282 282 281 280 280 283 284 284 282 279 279 278 277 276 275 276 278 278 277 277 278 278 279 280 281 281 280 280 281 281 279 277 275 274 272 271 271 270 270 269 271 273 275 270 271 273 273 273 270 269 273 276 276 277 277 277 276 276
Wind_Speed
10 10 9 10 9 8 8 8 7 6 6 6 6 6 5 5 5 6 5 5 5 4 3 3 3 3 3 3 2 2 2 2 2 2 2 2 2 3 7 6 4 3 3 3 3 4 4 5 5 5 6 6 6 7 6 7 8 8 8 7 7 8 9 8 9 10 10 10 9 9 9 9 10 10 11 11 11 11 12 12 12 12 13 13 13
11 10 10 11 9 9 8 8 7 6 7 6 6 6 6 6 5 5 5 5 4 4 4 3 3 3 2 3 2 3 2 2 2 2 2 2 2 4 6 8 6 4 4 4 5 5 5 5 5 5 5 6 6 6 9 8 7 6 6 6 7 7 7 8 9 9 9 8 8 8 9 9 9 10 10 11 11 11 11 12 12 12 13 13 13
10 11 10 10 9 9 9 8 8 7 7 6 6 6 6 6 6 6 5 5 4 4 3 4 3 3 2 2 2 2 2 2 2 2 2 2 3 3 4 7 10 8 5 7 8 7 7 6 5 4 5 6 6 6 5 4 5 5 4 6 6 6 7 8 8 7 8 8 8 8 9 9 9 10 11 11 11 11 11 11 12 12 12 13 13
11 10 11 10 10 10 9 9 8 7 7 6 7 5 5 5 5 4 5 5 5 4 3 4 4 3 2 2 2 2 3 2 2 2 2 3 3 3 4 4 9 12 10 8 8 8 8 8 7 6 4 5 7 6 5 4 6 5 4 4 6 6 7 7 6 7 7 7 8 8 8 8 8 9 10 11 11 11 11 11 11 12 12 12 13
10 11 10 9 9 9 9 8 8 8 7 7 7 5 5 5 4 4 4 4 5 4 3 3 3 3 3 2 2 2 2 3 3 3 3 3 3 4 4 4 6 9 13 13 11 10 10 9 9 9 8 7 6 5 5 5 5 5 4 5 5 6 6 6 6 7 7 7 7 8 8 8 8 8 9 10 9 9 9 10 10 11 11 12 12
10 10 10 9 9 9 9 8 7 8 7 7 7 6 6 6 6 5 5 5 5 5 5 4 3 3 3 2 2 2 3 3 2 2 3 3 3 4 4 4 4 4 6 12 14 13 10 9 9 9 9 8 5 4 5 5 4 4 5 6 6 5 5 5 5 7 6 6 6 7 7 7 7 8 8 8 8 9 9 10 10 11 11 11 12
10 10 10 9 9 9 9 8 7 8 7 7 7 7 6 7 7 7 6 5 5 5 5 4 4 4 3 3 3 2 2 3 3 3 2 3 3 3 3 4 4 4 4 4 8 12 12 12 11 10 9 7 6 5 5 4 4 4 4 5 6 5 5 6 6 5 6 6 6 6 6 7 7 7 8 7 8 8 9 10 10 11 11 11 12
10 10 10 10 9 9 9 8 9 8 8 8 7 8 7 7 7 7 8 6 6 6 4 5 4 4 3 2 3 3 3 3 3 3 3 3 3 4 3 3 3 3 3 4 4 7 11 12 12 12 11 9 8 7 4 3 4 4 4 5 5 5 5 6 5 5 5 6 6 6 7 7 7 7 7 8 8 9 10 10 11 11 11 11 11
12 11 10 10 9 8 8 9 9 9 8 8 8 7 8 7 6 6 6 7 7 7 5 5 4 4 3 3 3 3 3 3 4 3 3 3 4 4 3 4 4 3 2 3 3 4 8 11 12 13 13 10 9 9 5 3 3 3 3 4 5 5 6 6 6 6 6 6 7 7 7 8 8 8 8 8 9 10 10 11 12 12 12 12 11
12 11 10 9 9 9 8 9 9 8 8 8 8 7 7 7 7 6 6 7 7 8 7 5 4 4 3 3 3 3 3 3 3 3 4 4 4 4 4 4 3 3 3 3 2 2 3 6 9 11 13 11 9 10 8 4 3 3 5 5 6 6 6 7 6 7 7 7 7 8 8 8 8 8 9 8 9 9 9 10 11 11 12 12 12
12 11 11 9 9 9 8 10 9 8 8 8 7 7 7 7 8 7 5 5 6 7 7 6 5 4 4 3 2 2 2 2 3 3 3 4 4 3 3 4 4 3 3 2 2 2 2 2 2 3 6 11 9 10 10 7 3 2 5 5 5 6 6 6 7 7 8 7 7 7 7 7 7 8 8 8 9 9 9 9 10 10 10 10 11
13 12 12 10 10 9 9 9 9 9 9 9 8 9 10 10 9 10 9 4 2 5 7 7 6 6 5 3 3 2 2 2 2 3 3 4 4 4 4 4 3 3 3 2 2 2 2 2 2 3 4 7 10 9 10 11 6 4 4 4 5 4 5 5 7 6 7 7 6 6 7 7 8 8 8 9 9 9 9 10 9 10 10 9 9
12 12 12 11 10 8 9 9 9 9 9 10 10 10 9 9 8 8 10 9 6 5 7 8 8 6 4 4 3 2 2 2 3 3 3 4 4 4 4 4 4 3 2 2 2 2 2 2 2 2 3 3 5 7 9 11 13 5 5 5 5 7 6 6 6 7 7 7 7 7 7 7 7 8 9 9 9 10 10 10 10 10 9 9 9
11 11 11 11 11 9 9 10 10 10 9 8 8 8 9 9 8 8 7 9 7 8 9 10 7 8 8 5 3 3 3 2 3 4 3 4 4 4 4 4 4 3 3 3 3 3 2 2 2 2 2 3 3 3 3 4 10 16 12 10 6 4 5 5 5 6 7 7 7 7 7 8 8 8 9 9 10 10 10 10 10 10 10 10 10
10 11 10 11 11 10 10 10 11 10 9 9 9 10 10 11 11 10 9 7 6 7 10 11 7 7 6 6 5 5 4 4 4 4 4 4 4 4 3 4 4 4 4 4 4 3 2 2 2 2 2 3 3 4 6 7 8 14 15 16 13 9 7 7 7 7 8 7 7 7 8 7 8 9 9 9 10 10 10 10 10 10 10 10 10
11 11 9 10 11 11 10 10 11 11 11 11 11 11 10 10 11 10 10 10 7 9 9 8 4 11 7 6 5 5 3 8 7 6 5 4 5 5 4 4 5 4 3 3 3 3 3 3 3 3 2 3 3 4 5 6 8 10 12 13 14 13 10 8 7 8 7 7 7 7 7 8 8 9 9 10 10 9 9 10 10 10 10 10 11
10 12 11 11 11 10 11 11 11 11 11 10 11 12 12 12 13 11 13 12 11 9 10 8 8 5 3 6 3 3 6 4 9 6 6 5 6 6 6 5 5 4 3 3 2 3 3 4 3 3 3 3 3 4 5 5 4 5 8 9 11 12 12 10 8 8 7 8 8 7 8 8 9 10 10 10 10 10 10 9 9 9 9 10 10
10 12 12 11 11 11 10 10 11 10 11 10 10 9 11 12 13 13 14 13 11 10 11 9 8 7 6 4 2 2 4 7 8 5 7 6 6 6 6 7 5 4 3 3 3 3 2 3 3 4 4 4 4 4 4 4 3 4 4 7 12 12 12 11 10 8 8 8 8 8 8 9 9 9 10 10 10 9 9 9 9 9 10 10 10
11 11 12 12 12 11 11 11 11 10 10 10 10 12 11 12 11 12 12 12 11 11 13 12 7 7 5 5 3 2 2 9 7 5 5 6 7 7 7 7 6 5 4 4 3 3 3 3 4 4 4 4 4 4 4 5 7 7 9 9 11 12 12 11 10 9 8 8 8 8 8 9 9 10 10 10 10 9 9 9 10 10 10 10 10
10 11 11 12 12 12 12 11 11 11 10 11 11 10 9 9 11 12 10 12 12 12 12 11 13 10 9 6 4 2 3 4 3 7 4 7 7 6 6 7 7 6 6 4 4 4 4 3 4 4 4 4 4 4 4 5 4 4 5 9 11 12 12 12 10 9 9 9 9 9 9 9 9 10 10 10 10 10 9 9 9 10 10 10 10
11 11 12 12 11 12 12 12 11 11 10 10 9 10 12 13 13 12 12 11 11 11 10 11 12 10 9 7 5 5 3 2 2 2 5 7 6 9 8 6 6 7 7 5 4 4 4 3 3 4 4 4 4 4 4 4 4 4 5 8 10 11 12 12 11 10 9 9 9 10 9 10 10 10 10 11 10 10 10 10 10 9 9 10 10
11 12 12 13 12 12 11 13 12 11 10 11 10 10 11 11 12 13 13 13 11 11 12 10 11 9 11 8 9 6 4 4 5 5 1 3 5 8 9 10 9 8 8 7 7 5 5 4 5 5 4 4 4 4 4 4 3 3 5 8 9 10 11 11 10 9 9 9 9 9 10 10 10 11 11 10 10 10 10 10 9 10 10 11 11
9 10 12 13 13 12 11 11 11 10 10 12 12 12 11 11 11 11 12 14 11 11 9 8 9 9 10 9 11 11 11 10 9 8 8 6 4 5 6 8 7 8 8 7 6 6 5 5 6 6 6 5 5 5 5 4 5 5 6 6 8 9 10 10 9 8 8 8 9 9 9 10 11 11 11 11 10 10 10 10 10 10 10 11 11
8 9 11 12 11 11 12 12 12 12 13 12 11 11 11 10 9 10 11 12 10 9 10 9 9 7 9 9 9 9 9 8 8 9 9 8 8 7 6 5 2 3 5 6 5 5 6 6 7 7 6 6 6 5 5 5 5 6 3 6 6 7 8 8 7 6 6 7 8 8 9 10 10 10 11 11 11 10 10 10 10 10 10 11 11
9 11 11 14 12 12 12 13 13 13 12 12 12 12 11 11 11 11 11 12 12 11 10 11 10 9 9 9 8 9 9 8 6 7 7 6 7 6 4 5 5 6 5 6 6 5 5 6 7 7 7 6 6 6 6 6 5 7 3 4 3 5 6 7 6 5 5 6 7 7 8 9 9 10 10 11 10 10 10 11 11 10 11 11 11
9 11 10 11 11 12 12 12 12 12 12 13 12 12 12 12 13 13 14 12 11 12 12 11 10 10 7 8 9 7 8 4 5 5 7 6 7 8 5 2 1 4 4 4 4 5 5 6 6 6 6 7 6 7 7 6 5 8 4 0 2 2 4 6 5 4 5 6 6 6 6 7 8 9 9 10 10 10 10 10 11 11 12 12 13
9 8 9 10 12 11 12 12 13 12 11 11 10 11 11 11 11 12 11 11 12 12 12 12 11 12 11 10 9 8 8 6 6 7 7 8 8 8 8 7 4 2 4 4 4 8 4 6 6 6 6 6 6 6 6 6 5 9 3 3 2 3 2 4 4 4 5 5 5 5 6 6 7 7 8 9 10 10 10 10 11 11 12 12 13
7 8 9 9 11 12 12 12 13 12 11 12 11 10 10 11 10 10 12 7 10 13 12 12 12 13 12 9 8 10 7 6 7 7 7 7 6 6 8 9 8 5 6 5 6 7 7 7 5 6 6 6 6 6 6 6 5 8 4 3 2 2 1 3 4 5 6 5 5 5 5 6 6 6 7 8 8 9 10 11 11 12 12 12 12
7 6 8 9 10 11 11 12 13 12 12 12 11 11 10 11 11 12 13 11 11 13 12 11 12 11 10 11 10 8 8 7 6 6 6 6 6 5 8 9 9 7 6 8 9 8 8 9 7 8 8 7 6 6 6 6 6 7 4 3 3 3 2 4 5 6 6 5 5 4 5 5 5 6 7 8 9 10 11 10 11 12 12 12 12
6 4 7 8 9 11 11 11 11 12 12 11 12 12 11 11 13 12 12 10 12 11 12 12 11 10 10 9 10 9 7 7 8 7 6 7 6 6 7 8 8 10 8 8 8 9 7 9 8 7 9 9 7 6 6 6 8 6 4 4 4 4 3 6 7 7 6 5 5 5 5 5 5 6 7 8 9 10 10 10 11 11 12 12 12
7 7 8 9 9 9 11 11 11 12 12 12 11 12 13 13 13 12 12 12 11 13 12 11 11 10 12 12 10 10 8 8 7 7 7 6 7 6 6 5 5 8 9 7 5 5 7 9 9 6 9 10 7 6 5 5 7 6 5 5 5 4 4 6 8 8 8 6 6 6 6 6 6 6 7 8 10 10 10 10 11 11 12 12 12
7 8 8 9 10 10 11 11 12 12 12 12 12 13 12 13 13 13 13 14 14 14 12 11 9 11 12 13 12 11 8 8 8 8 8 7 7 7 6 6 6 5 5 6 8 6 5 6 8 7 9 9 9 8 7 6 5 8 6 5 5 5 6 5 8 9 8 8 7 7 7 6 7 6 7 8 9 10 11 11 11 11 12 12 12
8 8 9 10 10 10 11 11 12 12 13 13 11 12 12 13 13 13 13 14 16 14 13 14 12 12 14 14 13 13 10 11 9 8 8 8 7 7 6 6 7 6 7 8 8 6 4 3 6 7 8 9 8 9 9 8 7 7 7 6 6 6 5 5 5 8 10 9 8 8 8 8 7 6 7 8 9 10 10 11 11 12 12 12 13
9 9 10 9 9 11 11 11 12 12 12 13 12 12 13 13 14 10 12 13 14 15 13 14 14 11 12 13 13 12 11 12 10 11 10 10 10 9 8 8 8 8 8 8 9 6 7 6 5 6 8 9 8 9 9 8 7 6 6 6 5 6 5 5 5 5 10 10 9 9 8 7 6 6 7 7 8 9 10 11 12 12 13 13 13
9 9 10 10 10 11 11 10 11 11 12 12 12 13 14 15 15 13 12 14 15 15 16 16 15 13 13 14 14 11 8 11 11 10 10 11 10 11 11 9 9 9 9 9 8 7 8 7 7 7 8 8 8 8 8 6 5 5 6 7 6 5 5 6 5 4 8 10 10 9 8 7 6 6 7 8 8 9 11 11 12 13 13 13 13
10 10 10 10 11 11 11 11 11 11 12 12 12 13 15 15 14 15 14 14 14 14 15 14 13 13 15 15 14 13 11 12 11 11 10 10 10 10 9 8 8 9 8 8 8 6 7 8 8 8 7 8 7 5 5 4 5 5 6 6 6 6 6 6 6 6 6 10 9 8 8 7 7 7 8 8 9 10 11 12 13 13 13 13 13
11 10 10 9 10 11 10 11 12 12 12 12 13 13 13 13 14 14 14 14 14 14 15 14 14 12 13 14 14 11 11 12 12 12 10 13 9 8 8 8 8 7 6 7 8 5 7 9 8 7 7 7 7 7 8 7 7 7 7 7 7 7 7 7 6 6 8 10 10 9 8 7 7 8 8 9 9 10 12 13 13 12 12 13 13
10 11 11 10 9 11 11 11 12 12 11 11 13 14 13 13 13 14 13 13 14 14 14 14 13 11 12 13 10 11 13 15 14 13 10 12 8 8 10 9 9 8 9 8 7 7 6 8 9 9 8 9 8 8 10 9 9 8 8 7 7 7 7 7 7 6 6 5 5 6 7 8 9 8 8 9 10 12 12 13 13 12 12 13 13
8 8 8 10 9 10 12 11 12 12 12 13 13 13 12 12 13 13 13 13 14 13 13 14 12 12 13 11 10 12 15 15 13 13 11 11 10 12 10 10 9 9 10 9 9 9 8 8 8 8 9 8 9 9 9 9 8 7 8 8 8 8 8 7 6 6 5 5 6 7 5 4 5 6 8 10 11 11 11 11 12 12 12 13 15
10 9 9 9 9 8 9 10 11 11 11 11 13 13 12 12 11 12 13 13 14 13 14 14 14 14 15 14 14 15 16 16 13 8 9 11 10 10 9 8 9 9 9 9 9 9 8 8 8 10 9 10 8 6 8 9 7 7 8 8 8 9 9 8 7 5 5 4 3 3 5 5 6 7 8 9 8 7 8 9 10 11 13 15 16
8 9 10 10 10 10 10 10 11 10 11 12 10 9 10 12 11 12 15 14 14 15 14 14 15 16 16 16 16 15 19 22 23 21 18 17 11 11 10 10 9 7 7 7 8 8 8 8 7 8 8 9 9 10 10 10 11 10 10 9 6 4 5 5 6 6 5 4 3 3 3 3 3 4 4 4 3 4 5 7 8 11 13 14 15
9 8 8 9 9 10 11 11 11 10 10 9 12 17 16 11 12 13 13 15 14 14 14 14 15 16 17 16 15 23 23 24 24 24 25 22 23 15 12 11 12 8 8 8 8 9 8 8 9 10 9 10 11 11 10 10 8 6 8 9 7 6 5 5 4 4 5 4 4 3 2 2 2 5 4 5 4 3 4 4 4 6 10 15 17
11 9 9 9 9 9 10 11 12 10 10 10 16 16 17 21 16 13 13 14 14 15 15 15 15 15 15 16 14 18 21 21 22 23 14 16 14 14 10 7 12 21 17 11 8 9 9 8 8 8 9 9 10 10 10 9 9 9 8 7 6 5 5 4 3 3 4 4 2 1 2 1 2 5 5 4 4 4 5 6 9 12 15 17 19
10 9 10 9 9 9 9 10 11 12 11 12 16 17 19 21 20 15 12 13 13 13 14 14 13 12 13 13 12 10 13 16 13 13 17 16 17 18 14 10 13 16 20 21 15 9 8 7 8 8 8 10 10 10 9 10 10 9 8 8 7 7 5 4 2 2 3 4 2 1 5 4 3 5 7 5 4 5 6 10 13 14 16 18 20
10 10 11 11 11 10 9 11 11 11 11 13 15 16 18 19 21 20 13 13 13 13 14 14 14 13 11 9 9 9 10 22 16 13 13 13 17 18 17 14 15 18 19 17 11 4 9 12 12 11 11 9 10 10 10 10 10 10 9 7 8 7 5 4 4 3 4 5 2 1 4 5 3 4 6 6 5 5 7 11 14 15 18 20 20
10 10 10 11 11 11 10 11 11 11 12 13 15 16 17 19 22 20 14 15 14 15 14 13 13 14 13 10 9 9 8 11 13 15 14 13 12 13 12 11 11 14 18 18 20 10 5 6 11 15 8 8 7 9 11 11 12 10 9 7 7 6 5 4 3 2 2 2 2 1 4 5 4 5 7 6 5 6 8 10 13 15 17 19 19
11 10 10 10 10 10 10 10 11 11 10 15 16 18 18 20 21 20 14 14 14 15 12 11 12 13 12 10 11 10 10 12 13 16 15 13 14 12 12 12 10 12 14 15 14 12 9 8 7 4 7 8 8 10 11 10 9 8 7 6 5 4 3 1 2 3 4 3 3 3 4 3 4 5 7 6 5 7 7 10 15 17 18 19 19
10 10 10 10 11 12 11 10 10 12 12 14 16 18 20 20 22 14 13 14 14 15 16 12 10 11 12 10 10 10 10 11 15 22 17 11 15 16 18 16 10 10 12 14 16 13 11 10 8 8 8 8 10 10 11 10 9 9 8 7 7 5 4 3 5 4 5 5 7 7 5 5 6 7 7 5 5 7 8 9 14 17 17 18 19
12 11 10 11 11 12 12 11 11 12 11 13 15 18 19 20 17 11 12 12 13 15 12 10 10 12 11 12 12 11 11 12 17 24 22 16 15 17 17 16 8 9 10 11 17 18 16 13 12 13 13 15 14 15 16 17 12 10 9 8 7 6 7 6 6 5 6 5 6 7 5 6 7 7 6 6 6 8 8 9 9 12 17 18 19
12 12 12 12 12 11 12 13 12 12 13 12 14 17 19 20 17 12 11 12 14 14 10 9 9 10 13 21 17 12 12 13 19 25 26 20 18 18 17 17 12 12 10 10 10 11 18 16 15 15 15 15 16 16 16 16 17 13 10 10 10 8 8 8 6 5 3 3 6 7 5 6 4 4 5 5 6 7 9 9 8 8 12 14 18
13 12 12 12 13 12 11 13 13 14 13 14 17 17 20 20 16 11 12 12 15 14 13 9 9 9 9 13 19 16 12 13 22 25 28 22 17 17 13 13 12 14 13 13 13 13 12 11 11 12 12 14 13 12 12 19 19 16 9 9 9 8 8 7 5 3 3 5 6 9 5 5 4 5 3 2 3 4 5 6 7 6 6 8 10
Wind_Direction
188 187 185 188 184 178 177 180 179 175 175 176 174 172 172 165 160 160 158 153 149 145 138 133 138 127 128 127 132 119 123 129 121 124 135 139 131 63 353 8 28 45 75 92 110 119 132 132 133 131 134 125 104 107 120 97 89 81 74 74 70 73 68 65 60 58 55 51 49 48 46 43 44 46 47 48 47 43 43 43 43 42 40 39 38
187 187 185 186 182 176 179 180 180 175 179 181 179 178 173 167 164 159 156 152 152 141 148 137 129 129 137 139 138 139 134 136 141 149 140 127 116 112 25 3 23 60 60 81 85 94 96 107 113 125 126 117 117 133 99 107 90 79 78 77 80 79 77 67 66 62 58 53 50 48 46 45 42 45 47 47 46 45 44 42 41 40 39 38 37
187 186 185 184 180 179 185 178 181 179 182 181 175 181 171 172 167 162 159 156 146 144 155 143 141 135 129 146 142 141 135 135 143 143 140 128 122 109 82 32 16 17 73 69 70 72 71 74 76 93 116 130 130 106 116 120 105 88 82 89 84 84 82 72 67 61 58 53 49 50 51 46 43 44 45 45 45 43 43 41 41 38 37 36 34
187 183 186 183 183 184 184 180 186 177 182 177 171 174 168 149 142 138 140 145 140 146 148 152 149 143 143 146 158 152 147 144 148 147 127 120 126 127 117 88 45 25 35 73 69 67 70 68 66 64 81 103 94 92 93 90 91 92 93 89 100 94 82 75 65 60 59 55 53 51 50 45 43 44 43 43 43 43 43 42 40 39 37 36 34
188 183 183 183 183 181 184 185 183 176 176 167 159 158 153 148 139 141 141 139 142 138 135 150 148 146 158 156 161 155 146 155 147 147 140 141 133 129 127 119 100 63 40 38 52 57 58 60 60 57 61 77 77 98 111 98 105 106 102 97 84 87 87 85 76 67 60 58 53 50 49 48 41 44 44 41 42 44 43 40 39 37 36 35 33
187 183 185 185 182 185 185 184 182 168 163 159 168 170 167 158 152 158 155 159 155 153 162 165 154 151 158 157 173 159 155 153 147 138 150 142 136 130 132 137 132 113 84 55 37 34 47 53 57 58 58 64 82 92 87 93 97 103 100 91 84 82 86 79 74 66 60 60 55 51 50 48 44 41 43 41 39 41 40 37 37 36 34 31 30
186 180 186 188 184 186 187 184 171 165 167 174 174 172 168 165 162 164 159 163 158 157 171 167 160 159 155 165 161 157 161 138 134 137 146 136 137 131 130 131 133 130 129 115 67 34 36 45 47 47 50 52 56 59 65 75 87 84 96 92 89 91 76 68 63 64 64 57 57 54 51 49 46 44 42 39 37 37 36 34 32 32 29 28 26
184 184 187 192 189 188 185 176 162 170 175 172 175 172 169 166 171 166 159 165 161 164 175 164 159 148 146 152 143 163 151 146 145 150 146 156 143 139 133 119 126 109 111 113 102 62 43 49 47 43 43 44 41 34 45 77 85 95 100 95 90 86 79 74 71 72 67 64 55 53 48 44 43 39 39 39 36 35 33 32 31 29 26 24 23
188 188 192 190 190 187 181 170 168 177 175 172 178 175 167 164 164 171 169 161 168 165 170 164 145 132 128 132 145 165 160 157 159 147 153 152 144 136 120 105 95 110 104 94 109 108 63 58 56 45 37 44 44 37 33 59 104 109 101 104 97 86 83 77 76 70 67 62 57 53 48 42 40 39 38 39 34 32 28 26 26 24 20 18 17
189 188 195 190 190 188 176 166 172 178 173 173 181 171 170 171 159 164 164 164 173 172 170 153 132 133 126 132 152 168 153 155 141 150 160 151 148 138 131 128 119 99 91 82 83 94 109 82 74 61 42 42 49 44 36 49 59 125 119 110 98 90 84 79 72 67 60 57 53 45 43 39 36 34 30 30 25 25 22 21 18 17 14 12 10
187 186 193 189 190 188 172 169 175 178 173 175 171 166 167 175 162 156 158 170 176 175 165 139 125 115 118 118 120 125 145 135 151 168 155 153 132 124 126 129 119 106 103 93 83 85 76 96 97 90 65 44 50 48 44 60 46 121 130 125 111 92 84 80 70 58 48 44 42 41 39 36 32 28 28 24 22 21 22 19 17 17 13 11 8
187 187 192 190 190 187 175 168 179 178 176 178 175 179 176 168 167 159 160 150 162 152 139 135 120 108 105 97 89 94 120 154 167 158 161 148 147 153 143 133 130 116 105 108 100 91 99 94 95 97 99 72 57 51 42 32 44 83 116 113 111 110 93 69 56 47 40 32 31 32 27 26 24 20 20 19 17 15 16 13 9 8 6 5 5
189 186 193 191 191 180 170 172 180 182 186 189 181 174 171 168 158 160 162 165 174 163 156 144 135 123 113 116 114 109 120 172 170 170 170 165 162 161 150 150 141 139 136 117 114 113 122 115 107 103 104 118 99 69 50 33 21 61 87 95 86 67 63 59 54 47 35 30 22 29 22 19 18 18 15 13 11 7 6 5 0 1 359 358 357
190 191 193 190 187 176 175 176 182 188 192 187 170 158 158 164 157 158 176 175 171 175 167 161 175 169 158 154 152 155 162 186 181 173 179 174 174 164 165 158 151 149 151 141 131 133 122 127 113 106 109 112 112 108 89 57 35 42 55 51 62 64 52 42 31 34 33 27 17 22 19 13 14 13 11 7 4 2 360 357 355 356 353 353 353
190 192 194 192 189 180 183 179 184 183 183 182 175 172 175 172 172 170 164 182 174 180 183 200 183 173 160 145 176 174 175 206 195 193 184 180 180 173 167 153 153 158 157 153 150 138 123 111 116 114 122 124 121 114 93 77 54 46 47 40 36 33 33 31 22 20 20 15 15 13 16 13 10 12 11 4 1 358 354 353 352 350 349 351 349
193 192 195 195 192 187 180 182 187 187 187 183 180 181 174 175 177 179 167 165 180 188 204 211 224 152 172 217 168 202 184 211 188 182 180 182 196 184 173 165 160 165 169 157 147 146 146 132 132 136 132 131 128 121 113 105 102 81 55 43 38 36 31 28 24 22 18 16 15 12 16 14 10 10 6 4 359 356 352 353 352 351 351 350 350
196 195 198 198 197 192 189 189 187 189 190 187 183 186 180 180 176 175 180 181 179 183 200 209 230 250 212 142 137 216 235 131 162 174 175 189 201 196 184 179 178 182 174 156 144 143 149 153 148 141 148 145 139 134 132 140 139 108 82 50 41 36 31 30 27 22 21 20 16 14 12 11 10 7 6 358 355 353 354 352 348 348 349 348 348
203 197 198 199 200 197 192 189 190 189 194 194 184 176 180 180 183 184 187 194 179 172 187 208 224 237 260 309 331 233 180 144 164 187 173 208 194 198 197 199 194 191 193 172 176 166 155 159 162 156 160 160 155 148 137 121 105 82 69 51 38 34 33 29 26 25 22 20 16 10 11 12 8 5 358 355 353 350 350 350 344 349 350 349 349
206 202 200 201 201 198 196 194 193 194 193 193 188 186 183 185 182 192 193 188 184 185 184 189 199 247 237 241 271 234 277 144 199 127 180 193 212 202 207 206 207 213 204 201 182 190 166 174 167 167 163 168 161 161 141 111 91 97 67 51 38 31 28 27 27 21 22 17 15 9 10 6 3 0 357 351 350 349 350 349 349 351 349 348 349
208 205 206 204 203 201 198 197 195 196 191 199 196 188 182 185 187 193 191 195 193 194 188 180 185 202 198 212 234 247 262 295 260 202 208 168 192 205 217 199 210 218 219 206 196 197 182 176 173 173 174 168 171 163 147 140 140 118 73 44 37 27 23 21 22 19 19 13 13 6 2 2 360 358 354 350 351 347 347 348 348 346 344 344 348
206 206 205 207 205 205 199 199 198 197 192 201 201 191 189 183 183 189 194 197 202 207 196 188 193 192 163 205 203 206 195 246 281 263 234 215 181 180 193 187 215 223 214 201 192 180 187 176 172 181 172 167 170 161 155 150 143 109 71 46 34 25 19 15 16 15 10 9 9 2 358 358 356 354 351 351 345 345 345 345 342 340 343 346 349
203 206 202 205 208 207 206 202 201 197 191 200 199 191 194 192 191 193 194 196 199 202 209 197 192 197 182 173 184 176 195 207 216 201 262 264 237 185 178 174 193 206 194 191 183 182 183 177 174 183 180 175 169 161 156 157 137 119 77 48 36 23 15 12 12 10 3 3 3 357 354 354 352 351 350 345 343 342 340 342 338 344 347 348 349
206 208 207 203 204 204 206 205 205 201 194 199 201 197 198 196 196 199 200 200 199 201 211 211 191 197 184 189 191 183 187 191 192 194 199 193 210 186 174 189 192 162 190 177 172 179 179 178 182 178 181 173 171 163 166 143 124 108 86 53 39 19 11 8 7 5 360 356 356 352 351 350 348 346 344 340 341 339 339 339 340 345 345 345 347
207 209 210 205 204 204 202 202 204 205 203 204 203 197 196 193 195 200 207 210 212 202 209 211 199 205 192 201 203 198 205 199 193 186 195 207 198 206 176 155 164 153 141 170 181 183 187 186 184 180 179 174 173 169 155 161 131 129 173 81 36 20 6 1 0 2 353 351 348 347 344 346 343 340 338 335 337 337 337 336 339 339 341 344 345
210 211 210 202 201 203 202 204 206 206 204 201 203 195 190 189 195 198 204 203 207 203 206 211 199 204 200 206 209 208 211 212 196 189 203 209 201 208 138 161 186 164 156 171 183 191 195 192 179 183 178 179 168 172 171 172 162 136 154 127 73 17 1 352 352 355 347 342 342 341 343 339 338 334 333 331 332 333 333 333 335 336 338 341 342
215 214 212 201 202 207 207 209 211 209 203 202 200 194 191 195 195 196 199 201 201 202 209 207 204 206 203 201 209 214 217 208 201 192 193 189 201 207 152 149 84 151 129 189 171 177 192 197 184 181 182 178 174 175 178 172 155 136 105 171 145 57 350 341 339 341 334 328 334 335 336 334 329 329 327 327 328 328 328 329 331 335 337 338 338
221 220 209 202 205 207 209 208 208 209 205 203 203 200 198 200 203 202 201 200 201 201 209 203 203 200 205 206 202 209 213 196 195 205 197 196 193 190 161 164 186 178 169 186 188 223 186 177 182 188 187 182 181 180 176 178 138 121 151 205 218 160 297 327 326 322 311 313 324 327 329 323 322 321 322 321 320 322 324 325 329 333 334 334 335
229 216 208 202 204 208 209 209 206 206 206 207 207 206 202 204 209 205 207 196 201 202 210 206 210 203 204 203 205 213 206 194 201 205 199 198 198 185 179 180 180 193 193 197 201 222 191 173 182 199 189 188 183 180 167 157 161 143 173 230 238 243 218 306 309 304 299 309 315 321 312 311 312 309 311 310 315 319 318 321 325 329 329 330 330
238 215 211 207 209 210 213 214 212 210 208 203 199 202 203 208 214 213 214 206 207 210 210 211 213 204 207 201 209 210 204 192 202 209 202 201 204 193 189 192 197 206 181 209 204 198 186 194 184 193 192 192 181 173 165 193 160 166 201 207 232 257 241 287 290 285 290 294 303 296 291 294 296 299 302 308 312 309 310 316 325 326 327 327 325
235 220 216 214 212 211 216 215 212 209 208 204 200 199 198 210 216 219 218 210 208 213 212 214 211 201 205 202 208 216 195 187 202 201 198 202 199 196 200 204 206 212 204 198 207 188 173 187 197 173 184 188 182 177 177 196 139 176 203 226 229 238 235 274 275 272 274 281 279 278 276 283 279 283 292 300 303 306 313 317 320 322 323 323 322
238 233 220 220 215 211 212 217 215 213 211 209 202 202 200 208 210 215 212 209 210 214 214 209 213 200 203 204 204 214 195 194 195 196 199 196 199 196 206 204 207 215 220 214 220 174 171 178 194 179 172 180 178 172 175 192 160 191 211 226 229 209 248 257 255 257 261 259 259 259 260 263 268 274 289 300 304 309 311 315 317 319 318 317 315
244 233 227 221 218 216 214 215 217 214 212 211 207 209 207 212 210 209 209 203 211 214 212 206 202 204 205 208 206 207 193 187 197 195 196 196 194 197 198 197 204 208 210 214 226 180 177 176 170 162 164 171 174 178 183 194 155 180 223 224 222 208 235 232 229 244 252 250 251 251 254 257 264 277 291 296 302 309 312 311 314 316 315 311 307
251 241 234 229 223 220 218 215 216 215 212 210 208 207 211 215 216 216 211 203 206 211 209 209 203 203 208 208 208 206 187 191 198 192 194 190 187 197 192 193 200 193 191 208 210 177 142 142 153 158 160 163 178 188 189 191 190 196 207 228 224 226 227 236 228 223 236 244 247 249 250 252 259 277 287 295 303 305 307 310 311 310 307 306 309
259 250 243 235 229 227 223 220 216 217 214 211 209 207 212 214 216 212 212 207 207 211 205 212 200 199 204 205 207 198 191 197 195 195 191 186 189 190 194 192 198 191 194 198 211 187 167 159 166 148 156 175 182 186 196 195 197 195 204 216 223 225 227 227 234 221 219 234 242 246 250 251 262 274 287 292 295 300 303 304 303 303 303 308 313
270 254 249 243 236 229 227 225 221 219 216 213 211 209 213 215 216 214 209 208 208 209 209 211 201 196 200 207 207 191 178 196 203 200 189 190 186 193 193 191 197 193 188 201 198 198 166 177 173 164 170 178 192 183 192 204 202 205 217 221 223 222 223 231 233 235 217 230 238 244 247 254 262 271 276 284 292 295 295 297 299 301 307 312 317
285 274 256 250 244 237 235 231 228 224 219 218 216 213 216 215 217 219 215 213 213 212 215 215 203 193 199 203 207 191 179 194 201 198 196 190 187 192 187 185 192 189 183 188 207 199 166 157 183 180 174 169 190 184 176 183 200 217 224 234 227 230 230 226 233 237 224 229 242 249 251 254 258 262 267 276 283 287 292 297 301 306 311 314 313
296 284 271 254 251 247 239 233 229 226 222 218 218 219 217 216 219 221 219 214 214 214 216 214 208 197 201 204 200 173 175 193 198 194 188 189 188 179 180 175 182 181 164 186 192 193 172 173 161 176 169 175 179 180 178 180 195 212 221 226 228 229 233 231 229 231 230 233 241 243 241 242 246 250 256 266 277 288 295 299 303 309 310 310 310
306 294 281 269 249 250 245 239 235 232 223 220 225 225 222 220 221 224 226 223 221 219 218 219 208 197 203 207 195 179 187 197 201 193 178 183 172 181 180 176 177 166 172 178 183 184 181 174 161 161 179 174 173 187 187 189 189 191 202 214 224 232 231 231 225 215 209 206 202 203 208 220 219 230 252 271 286 295 298 300 304 309 311 307 301
302 292 286 277 266 254 251 245 241 239 237 231 230 228 225 223 221 224 225 225 225 221 221 221 213 209 213 211 200 194 200 203 198 187 176 172 181 189 182 175 164 164 175 178 177 178 181 173 168 172 170 184 182 182 184 188 198 198 193 191 208 212 218 223 220 200 202 209 213 217 231 255 269 271 276 285 291 293 297 302 308 310 307 299 292
320 311 297 287 276 264 256 250 245 240 238 237 233 230 226 221 219 221 226 228 230 226 224 224 221 217 216 216 214 211 211 209 201 176 158 179 173 180 184 167 166 168 177 174 171 175 177 181 175 172 177 175 183 183 159 174 188 208 209 204 203 189 196 205 215 205 199 205 213 191 197 217 227 244 269 280 275 280 294 304 306 303 295 290 287
318 313 308 301 290 275 261 255 256 244 239 239 235 224 219 223 216 220 228 230 228 229 227 222 221 219 218 217 216 215 215 219 216 213 206 197 171 180 181 163 172 168 169 170 174 172 177 176 177 174 172 180 184 176 178 186 193 197 185 193 217 198 191 206 201 196 202 206 205 202 199 191 247 267 276 279 273 299 299 299 294 284 278 279 284
321 314 304 293 288 286 279 263 249 249 248 245 240 237 232 229 229 233 232 231 231 233 232 226 224 222 220 218 217 220 221 221 220 219 217 213 209 200 161 166 176 165 169 168 173 179 173 179 184 171 178 192 186 187 186 192 184 165 165 186 204 198 189 215 210 199 188 188 204 206 194 183 275 286 283 289 298 301 300 298 283 286 284 285 286
318 312 311 302 297 291 284 279 271 255 245 244 242 234 231 228 231 234 233 236 235 233 233 227 227 223 222 221 221 218 220 221 221 219 211 206 206 216 214 200 177 162 170 170 182 166 179 190 173 177 188 184 185 180 183 172 169 173 177 184 194 194 199 194 188 135 171 171 194 246 255 211 308 299 296 290 295 293 285 274 278 284 286 287 287
317 314 308 299 294 290 282 278 274 270 266 252 241 235 232 229 228 233 235 235 232 232 232 228 227 224 221 219 216 210 205 210 201 202 210 206 204 207 207 209 210 208 195 173 163 178 195 177 175 192 172 188 175 172 176 169 171 172 179 183 193 197 188 197 196 175 109 130 156 289 290 312 314 294 292 285 285 282 272 272 276 282 286 284 284
307 309 308 308 302 298 289 282 276 268 267 265 260 239 233 230 228 227 236 234 233 233 230 228 226 222 213 204 210 207 204 209 206 202 199 199 201 200 200 200 208 209 214 228 271 296 167 166 176 173 187 172 165 183 176 172 163 163 170 182 192 194 196 199 197 165 149 141 135 272 288 296 293 269 271 275 265 262 264 261 264 271 273 273 275
304 300 301 299 298 298 293 287 281 277 271 273 266 251 238 232 232 228 233 235 235 235 231 224 221 222 212 199 202 201 186 185 196 198 190 189 185 187 193 195 197 206 215 217 215 227 238 213 170 176 172 165 172 168 171 165 166 166 171 179 184 185 192 201 199 175 149 118 167 275 282 268 257 252 253 254 251 258 258 260 262 262 264 266 269
303 300 299 299 294 293 289 283 283 276 269 270 269 263 254 243 236 230 234 235 237 238 232 223 220 220 215 207 205 201 190 182 193 190 186 175 181 185 191 197 193 196 200 202 203 203 194 202 210 177 155 164 163 160 159 165 160 153 155 157 166 180 179 187 261 264 267 246 220 211 240 273 242 236 247 255 261 260 259 264 262 260 259 260 263
291 290 290 288 288 290 288 282 281 276 272 266 263 262 257 252 247 238 238 237 239 239 239 229 213 217 218 202 204 199 188 188 191 188 181 166 186 193 198 199 191 192 199 201 197 191 184 188 180 166 155 157 157 156 158 156 149 143 120 94 74 84 106 186 225 240 234 235 200 208 224 243 251 253 257 258 261 265 264 260 261 259 257 256 256
295 291 284 283 285 285 284 284 275 272 272 267 266 263 258 256 251 244 241 241 240 241 236 219 216 216 211 203 206 205 190 195 185 186 184 167 187 195 198 197 187 188 193 191 190 187 183 175 161 154 150 155 156 155 159 158 156 141 119 127 156 164 185 212 235 228 237 208 196 202 221 248 242 237 253 259 267 270 267 260 260 256 250 249 251
291 286 288 288 281 273 276 281 277 276 278 266 260 262 259 254 248 246 245 244 243 240 234 214 215 220 216 217 213 206 195 195 183 191 193 185 196 198 198 196 186 192 190 178 169 177 174 170 166 165 167 166 165 164 167 167 162 145 153 161 168 161 196 215 217 213 222 201 200 195 196 233 241 241 255 271 271 256 255 258 251 241 242 246 252
286 289 287 284 285 280 275 277 275 271 270 272 269 262 258 254 250 244 247 248 248 242 236 225 209 221 217 212 204 204 192 187 186 195 198 192 197 198 191 187 189 194 189 172 168 164 166 164 172 169 172 175 175 176 182 183 176 162 152 133 148 161 189 206 206 202 253 242 199 178 187 241 218 250 239 285 268 261 225 236 230 222 242 258 262